Find Starlink 31880

NORAD ID: 59661 Int'l Des: 2024-084 Owner: SPXS Country: US Constellation: starlink operational
LEOCIRCULAR

实时位置

正在加载3D地球...

关于 Starlink 31880

正在加载描述...

即将过境

Passes for default location (London). Set your location on the main map for personalized predictions.

高度历史

Loading altitude history...

两行轨道根数

1 59661U 24084H 26129.22965697 .00004405 00000-0 16945-3 0 9992
2 59661 43.0013 56.2992 0000798 242.3198 117.7573 15.27589191113673
Epoch: May 9, 2026 • Age: 25 hours

当前状态

高度 490.4 km
速度 7.62 km/s
星下点 -28.90°S, 49.94°E
发射日期 May 6, 2024
运行时间 2 years
类型 internet

技术详情

分类 Payload
质量 730.00 kg
干质量 700.00 kg
总质量 730.00 kg
长度 0.30 m
直径 4.10 m
跨度 29.00 m
形状 Box + pan
制造商 SPXS
平台类型 Starlink V2M
阶段状态 In Orbit
所有者/国家 SPXS/US

Most Searched